Gulf - Port au Port: Past 24 Hour Conditions

 

Grand Étang

09:00 PM ADT 21 October 2014
This table is a summary of hourly weather conditions for the past 24 hours.
Date / Time
(ADT)
Wind(knots) Conditions Visibility(km) Pressure(kPa) Air tempC) Relative humidity(%) Dew pointC)
21 October 2014
21:00 ENE 4 N/A N/A 102.4 6 82 3
20:00 ENE 3 N/A N/A 102.4 5 84 2
19:00 SSW 2 N/A N/A 102.4 7 73 3
18:00 W 5 N/A N/A 102.3 10 68 4
17:00 WSW 5 N/A N/A 102.2 12 58 4
16:00 W 7 N/A N/A 102.1 12 61 5
15:00 WSW 8 gust 15 N/A N/A 102.1 12 55 4
14:00 WSW 14 N/A N/A 102.1 11 62 4
13:00 SW 13 N/A N/A 102.0 11 63 4
12:00 WSW 14 gust 20 N/A N/A 102.0 10 64 4
11:00 WSW 18 N/A N/A 102.0 10 67 4
10:00 WSW 19 N/A N/A 101.9 9 72 4
9:00 WSW 18 N/A N/A 101.8 9 72 4
8:00 WSW 21 N/A N/A 101.7 9 70 4
7:00 SW 20 gust 25 N/A N/A 101.6 8 73 4
6:00 WSW 18 N/A N/A 101.5 9 73 4
5:00 WSW 19 N/A N/A 101.5 9 71 4
4:00 WSW 23 N/A N/A 101.4 9 68 3
3:00 WSW 25 gust 30 N/A N/A 101.3 9 71 4
2:00 WSW 23 gust 29 N/A N/A 101.3 9 70 4
1:00 WSW 25 N/A N/A 101.2 9 70 4
0:00 WSW 27 gust 33 N/A N/A 101.1 9 70 4
20 October 2014
23:00 WSW 25 gust 32 N/A N/A 101.1 9 71 4
22:00 WSW 28 gust 37 N/A N/A 101.1 9 73 4
21:00 WSW 30 gust 36 N/A N/A 101.0 9 72 4
 
Map of Atlantic - Newfoundland marine weather areas Southwestern Grand Banks - 44138 Banquereau - 44139 Tail of the Bank - 44140 Nickerson Bank - 44251 Northeast Burgeo Bank - 44255 Blanc-Sablon Airport Cap Whittle Chevery Natashquan Airport Heath Point Miscou Island Grand Étang Ingonish Beach North Mountain St.Paul Island J.A. Douglas McCurdy Sydney Airport Charlottetown Airport East Point North Cape Argentia Bonavista Burgeo Cape Race Corner Brook Daniel's Harbour Englee Ferolle Point La Scie Port aux Basques Rocky Harbour Sagona Island St. Anthony Airport St. John's Int'l Airport St. Lawrence Stephenville Airport Twillingate Winterland Wreckhouse Cartwright Airport Mary's Harbour Grates Cove Pool's Island Marticot Island Long Pond Îles de la Madeleine Airport
Legend: buoyBuoy land stationLand Station